Tracking 20628 objects as of 6-Apr-2020
HD Live streaming from Space Station
objects crossing your sky now

RADUGA 20

Track RADUGA 20 now!
RADUGA 20 is classified as:


NORAD ID: 17611
Int'l Code: 1987-028A
Perigee: 36,927.9 km
Apogee: 37,166.2 km
Inclination: 16.3 °
Period: 1,500.6 minutes
Semi major axis: 43418 km
RCS: 2.0634 m2 (large)
Launch date: March 19, 1987
Source: Commonwealth of Independent States (former USSR) (CIS)
Launch site: TYURATAM MISSILE AND SPACE COMPLEX (TTMTR)
aabbcc
Your satellite tracking list
Your tracking list is empty




NASA's NSSDC Master Catalog

Two Line Element Set (TLE):
1 17611U 87028A   20096.13250502 -.00000089 +00000-0 +00000-0 0  9994
2 17611 016.2538 346.2746 0027445 107.8190 202.5850 00.95961610116583
Source of the keplerian elements: AFSPC